Location: 22
(39.7117°N, 89.5929°W)
Time: 17:46:08
(UTC-05:00)

Gurwin Techsat 1B - Pass Details

Date: 31 March 2023
Orbit: 811 x 813 km, 98.9° (Epoch: 06 June)

Event Time Altitude Azimuth Distance (km) Brightness Sun altitude
Rises 02:31:14 0° 34° (NE) 3,344 12.7 -41.7°
Reaches altitude 10° 02:34:44 10° 58° (ENE) 2,407 11.6 -41.3°
Enters shadow 02:36:04 13° 72° (ENE) 2,188 11.2 -41.2°
